KLM651 EDDF-EDDH

Flight info

Callsign KLM651
Flight time N/A
Altitude 35000
Route MARUN3W/25C MARUN Y150 TOLGI DCT SAS/N0480F340 P605 NOLGO NOLGO6A
Aircraft B744/H-SDE3FGHIM1M2RWXY/LB1

Departure

Time 2026-05-05 17:58
Airport Frankfurt Main Airport (EDDF)

Arrival

Time N/A
Airport Hamburg Helmut Schmidt Airport (EDDH)
Time Latitude Longitude Altitude Speed Heading
2026-05-05 17:22 50.04915 8.57874 378 ft 0 kts 22°
2026-05-05 17:47 50.04905 8.57867 379 ft 2 kts 22°
2026-05-05 17:48 50.04892 8.57859 378 ft 2 kts 26°
2026-05-05 17:48 50.04881 8.57848 378 ft 2 kts 45°
2026-05-05 17:48 50.04873 8.57833 377 ft 2 kts 58°
2026-05-05 17:48 50.04867 8.57816 377 ft 2 kts 71°
2026-05-05 17:49 50.04864 8.57795 377 ft 2 kts 86°
2026-05-05 17:49 50.04865 8.57776 377 ft 2 kts 99°
2026-05-05 17:49 50.04867 8.57759 377 ft 0 kts 111°
2026-05-05 17:49 50.04869 8.57752 377 ft 0 kts 112°
2026-05-05 17:52 50.04866 8.57765 377 ft 3 kts 112°
2026-05-05 17:52 50.04850 8.57825 377 ft 10 kts 114°
2026-05-05 17:53 50.04801 8.57908 377 ft 12 kts 154°
2026-05-05 17:53 50.04728 8.57948 377 ft 12 kts 162°
2026-05-05 17:53 50.04655 8.57991 376 ft 12 kts 161°
2026-05-05 17:53 50.04588 8.58031 376 ft 11 kts 149°
2026-05-05 17:54 50.04568 8.58111 377 ft 8 kts 75°
2026-05-05 17:54 50.04585 8.58173 378 ft 5 kts 66°
2026-05-05 17:54 50.04598 8.58231 378 ft 8 kts 76°
2026-05-05 17:54 50.04620 8.58343 378 ft 16 kts 72°
2026-05-05 17:55 50.04646 8.58458 375 ft 10 kts 70°
2026-05-05 17:55 50.04646 8.58553 371 ft 8 kts 124°
2026-05-05 17:55 50.04596 8.58591 368 ft 9 kts 161°
2026-05-05 17:55 50.04538 8.58623 366 ft 10 kts 161°
2026-05-05 17:56 50.04494 8.58612 366 ft 5 kts 244°
2026-05-05 17:56 50.04489 8.58592 367 ft 0 kts 249°
2026-05-05 17:56 50.04488 8.58591 367 ft 0 kts 249°
2026-05-05 17:57 50.04463 8.58491 370 ft 35 kts 249°
2026-05-05 17:57 50.04333 8.57941 372 ft 95 kts 251°
2026-05-05 17:57 50.03710 8.55316 495 ft 183 kts 249°
2026-05-05 17:58 50.03287 8.53572 1022 ft 195 kts 250°
2026-05-05 17:58 50.02883 8.51758 1463 ft 213 kts 258°
2026-05-05 17:58 50.02842 8.49756 2099 ft 217 kts 278°